BEL7WA EBBR-EKCH

Flight info

Callsign BEL7WA
Flight time 1h 15m
Altitude 33000
Route NIK L191 VICOT N873 SPY DCT DOSUR P729 TUDLO
Aircraft A320/M-SDE3FGHIRWY/LB1

Departure

Time 2026-05-04 17:55
Airport Brussels Airport (EBBR)

Arrival

Time 2026-05-04 19:11
Airport Copenhagen Kastrup Airport (EKCH)
Time Latitude Longitude Altitude Speed Heading
2026-05-04 17:17 50.90340 4.48374 119 ft 0 kts 155°
2026-05-04 17:23 50.90339 4.48374 121 ft 0 kts 155°
2026-05-04 17:23 50.90340 4.48374 121 ft 0 kts 155°
2026-05-04 17:33 50.90340 4.48373 121 ft 0 kts 155°
2026-05-04 17:46 50.90359 4.48360 118 ft 4 kts 151°
2026-05-04 17:46 50.90379 4.48336 118 ft 4 kts 113°
2026-05-04 17:47 50.90381 4.48316 118 ft 0 kts 65°
2026-05-04 17:51 50.90397 4.48343 119 ft 5 kts 40°
2026-05-04 17:51 50.90439 4.48396 117 ft 12 kts 45°
2026-05-04 17:51 50.90489 4.48535 119 ft 12 kts 65°
2026-05-04 17:52 50.90559 4.48602 118 ft 13 kts 13°
2026-05-04 17:52 50.90619 4.48713 119 ft 15 kts 65°
2026-05-04 17:52 50.90668 4.48882 121 ft 20 kts 65°
2026-05-04 17:52 50.90727 4.49085 121 ft 21 kts 65°
2026-05-04 17:53 50.90787 4.49295 120 ft 22 kts 65°
2026-05-04 17:53 50.90851 4.49517 121 ft 23 kts 65°
2026-05-04 17:53 50.90918 4.49745 119 ft 19 kts 64°
2026-05-04 17:53 50.90985 4.49867 118 ft 16 kts 37°
2026-05-04 17:54 50.91082 4.49941 120 ft 11 kts 16°
2026-05-04 17:54 50.91136 4.49883 119 ft 10 kts 269°
2026-05-04 17:54 50.91126 4.49842 118 ft 0 kts 246°
2026-05-04 17:54 50.91082 4.49686 117 ft 51 kts 245°
2026-05-04 17:55 50.90835 4.48831 119 ft 117 kts 245°
2026-05-04 17:55 50.90419 4.47393 122 ft 168 kts 245°
2026-05-04 17:55 50.89902 4.45614 543 ft 178 kts 247°
2026-05-04 17:55 50.89490 4.43771 1195 ft 179 kts 271°
2026-05-04 17:56 50.89918 4.42026 1869 ft 172 kts 320°
2026-05-04 17:56 50.90939 4.41089 2505 ft 170 kts 337°
2026-05-04 17:56 50.91992 4.40252 3140 ft 169 kts 334°
2026-05-04 17:56 50.93048 4.39357 3595 ft 180 kts 334°
2026-05-04 17:57 50.94218 4.38349 3836 ft 203 kts 334°
2026-05-04 17:57 50.95528 4.37207 4082 ft 228 kts 332°
2026-05-04 17:57 50.96988 4.35921 4461 ft 252 kts 332°
2026-05-04 17:57 50.98568 4.34521 5075 ft 265 kts 332°
2026-05-04 17:58 51.00192 4.33072 5905 ft 270 kts 332°
2026-05-04 17:58 51.01826 4.31607 6830 ft 271 kts 331°
2026-05-04 17:58 51.03481 4.30121 7660 ft 275 kts 331°
2026-05-04 17:58 51.05159 4.28613 8487 ft 279 kts 331°
2026-05-04 17:59 51.06860 4.27084 9299 ft 283 kts 331°
2026-05-04 17:59 51.08588 4.25528 10090 ft 287 kts 331°
2026-05-04 17:59 51.12299 4.22186 10681 ft 331 kts 330°
2026-05-04 18:00 51.14343 4.20346 11203 ft 342 kts 330°
2026-05-04 18:00 51.16417 4.18447 11912 ft 346 kts 327°
2026-05-04 18:00 51.18385 4.16189 12659 ft 350 kts 323°
2026-05-04 18:00 51.20352 4.13867 13377 ft 354 kts 323°
2026-05-04 18:01 51.22334 4.11537 14061 ft 357 kts 324°
2026-05-04 18:01 51.24344 4.09177 14703 ft 360 kts 324°
2026-05-04 18:01 51.26515 4.07162 15314 ft 363 kts 336°
2026-05-04 18:02 51.31479 4.05380 16604 ft 368 kts 359°
2026-05-04 18:02 51.34008 4.05337 17269 ft 369 kts 359°
2026-05-04 18:02 51.36622 4.05290 17907 ft 372 kts 359°
2026-05-04 18:02 51.39185 4.05240 18485 ft 375 kts 359°
2026-05-04 18:03 51.41805 4.05185 19010 ft 378 kts 359°
2026-05-04 18:03 51.44457 4.05131 19467 ft 384 kts 359°
2026-05-04 18:03 51.47139 4.05341 19921 ft 389 kts
2026-05-04 18:03 51.49782 4.06348 20388 ft 393 kts 19°
2026-05-04 18:04 51.52315 4.08091 20800 ft 400 kts 25°
2026-05-04 18:04 51.54860 4.09988 21216 ft 406 kts 25°
2026-05-04 18:04 51.60036 4.13847 22169 ft 414 kts 25°
2026-05-04 18:05 51.62669 4.15806 22622 ft 418 kts 25°
2026-05-04 18:05 51.65318 4.17773 23099 ft 422 kts 25°
2026-05-04 18:05 51.68000 4.19763 23538 ft 426 kts 25°
2026-05-04 18:05 51.70694 4.21769 23950 ft 428 kts 25°
2026-05-04 18:06 51.76132 4.25838 24715 ft 433 kts 24°
2026-05-04 18:06 51.78873 4.27893 25072 ft 436 kts 24°
2026-05-04 18:06 51.81629 4.29962 25435 ft 438 kts 25°
2026-05-04 18:07 51.84400 4.32046 25792 ft 440 kts 25°
2026-05-04 18:07 51.87181 4.34143 26130 ft 443 kts 25°
2026-05-04 18:07 51.89967 4.36244 26466 ft 445 kts 25°
2026-05-04 18:07 51.92784 4.38369 26802 ft 448 kts 25°
2026-05-04 18:08 51.95618 4.40509 27132 ft 450 kts 25°
2026-05-04 18:08 51.98466 4.42665 27398 ft 455 kts 25°
2026-05-04 18:08 52.01349 4.44852 27642 ft 459 kts 25°
2026-05-04 18:08 52.04250 4.47055 27965 ft 462 kts 25°
2026-05-04 18:09 52.10108 4.51513 28552 ft 467 kts 25°
2026-05-04 18:09 52.16026 4.56030 29099 ft 472 kts 26°
2026-05-04 18:10 52.19007 4.58311 29359 ft 475 kts 26°
2026-05-04 18:10 52.22007 4.60616 29579 ft 479 kts 26°
2026-05-04 18:10 52.25032 4.62944 29760 ft 483 kts 26°
2026-05-04 18:10 52.28081 4.65290 29986 ft 485 kts 26°
2026-05-04 18:11 52.31144 4.67647 30198 ft 488 kts 26°
2026-05-04 18:11 52.34216 4.70012 30394 ft 489 kts 26°
2026-05-04 18:11 52.37300 4.72387 30636 ft 490 kts 25°
2026-05-04 18:11 52.40378 4.74766 30934 ft 489 kts 25°
2026-05-04 18:12 52.43451 4.77147 31224 ft 489 kts 25°
2026-05-04 18:12 52.46524 4.79528 31450 ft 490 kts 25°
2026-05-04 18:12 52.49609 4.81923 31717 ft 490 kts 25°
2026-05-04 18:12 52.52604 4.84576 32001 ft 489 kts 33°
2026-05-04 18:13 52.55339 4.87890 32298 ft 488 kts 41°
2026-05-04 18:13 52.57771 4.91773 32590 ft 487 kts 47°
2026-05-04 18:13 52.62445 4.99833 32991 ft 485 kts 47°
2026-05-04 18:14 52.64767 5.03847 33014 ft 484 kts 47°
2026-05-04 18:14 52.69409 5.11879 33014 ft 484 kts 46°
2026-05-04 18:15 52.78696 5.28021 33013 ft 485 kts 47°
2026-05-04 18:16 52.83323 5.36125 33011 ft 485 kts 47°
2026-05-04 18:16 52.87948 5.44241 33010 ft 484 kts 47°
2026-05-04 18:17 52.94873 5.56434 33016 ft 484 kts 47°
2026-05-04 18:18 53.01755 5.68630 32999 ft 485 kts 47°
2026-05-04 18:18 53.06399 5.76883 33001 ft 486 kts 47°
2026-05-04 18:19 53.13310 5.89226 33031 ft 486 kts 46°
2026-05-04 18:19 53.17884 5.97404 33026 ft 485 kts 46°
2026-05-04 18:20 53.22507 6.05709 33022 ft 485 kts 46°
2026-05-04 18:20 53.27084 6.13981 33017 ft 485 kts 46°
2026-05-04 18:21 53.31657 6.22269 32997 ft 485 kts 46°
2026-05-04 18:21 53.36235 6.30590 32999 ft 486 kts 46°
2026-05-04 18:22 53.40816 6.38930 33001 ft 487 kts 46°
2026-05-04 18:22 53.45395 6.47303 33000 ft 487 kts 47°
2026-05-04 18:23 53.49967 6.55697 33001 ft 487 kts 47°
2026-05-04 18:23 53.54532 6.64116 32997 ft 487 kts 47°
2026-05-04 18:24 53.59058 6.72495 33023 ft 487 kts 46°
2026-05-04 18:24 53.63605 6.80938 33006 ft 487 kts 46°
2026-05-04 18:25 53.68155 6.89397 32997 ft 487 kts 46°
2026-05-04 18:25 53.72702 6.97885 32999 ft 488 kts 46°
2026-05-04 18:26 53.77254 7.06396 33010 ft 488 kts 46°
2026-05-04 18:26 53.81793 7.14936 33026 ft 488 kts 46°
2026-05-04 18:27 53.86317 7.23491 33026 ft 487 kts 46°
2026-05-04 18:27 53.90833 7.32061 33020 ft 487 kts 46°
2026-05-04 18:28 53.95345 7.40639 33014 ft 487 kts 46°
2026-05-04 18:28 53.99856 7.49232 33009 ft 488 kts 46°
2026-05-04 18:29 54.04356 7.57846 33028 ft 488 kts 46°
2026-05-04 18:29 54.08853 7.66483 33023 ft 487 kts 46°
2026-05-04 18:30 54.15588 7.79470 33019 ft 487 kts 46°
2026-05-04 18:31 54.20067 7.88149 33018 ft 487 kts 46°
2026-05-04 18:31 54.24537 7.96858 33048 ft 487 kts 47°
2026-05-04 18:32 54.28997 8.05571 33032 ft 487 kts 46°
2026-05-04 18:32 54.33425 8.14234 33021 ft 486 kts 46°
2026-05-04 18:33 54.37877 8.22972 33012 ft 486 kts 46°
2026-05-04 18:33 54.42311 8.31733 33008 ft 486 kts 47°
2026-05-04 18:34 54.46737 8.40519 33029 ft 486 kts 47°
2026-05-04 18:34 54.51149 8.49298 33041 ft 484 kts 47°
2026-05-04 18:35 54.55539 8.58053 33042 ft 482 kts 47°
2026-05-04 18:35 54.59919 8.66811 33011 ft 482 kts 46°
2026-05-04 18:36 54.64302 8.75606 32998 ft 484 kts 47°
2026-05-04 18:36 54.68682 8.84436 33024 ft 485 kts 47°
2026-05-04 18:37 54.72325 8.91800 33028 ft 483 kts 47°
2026-05-04 18:37 54.74497 8.96208 32764 ft 480 kts 47°
2026-05-04 18:37 54.76659 9.00604 32500 ft 479 kts 47°
2026-05-04 18:37 54.78821 9.05007 32234 ft 480 kts 47°
2026-05-04 18:38 54.80988 9.09426 31970 ft 482 kts 47°
2026-05-04 18:38 54.83157 9.13860 31708 ft 483 kts 47°
2026-05-04 18:38 54.85333 9.18312 31454 ft 484 kts 47°
2026-05-04 18:38 54.87522 9.22762 31191 ft 485 kts 46°
2026-05-04 18:39 54.89740 9.27173 30942 ft 484 kts 46°
2026-05-04 18:39 54.91978 9.31553 30706 ft 485 kts 46°
2026-05-04 18:39 54.94209 9.35899 30460 ft 479 kts 46°
2026-05-04 18:39 54.96418 9.40210 30214 ft 476 kts 46°
2026-05-04 18:40 54.98608 9.44510 29967 ft 475 kts 46°
2026-05-04 18:40 55.00785 9.48804 29682 ft 473 kts 46°
2026-05-04 18:40 55.02955 9.53112 29398 ft 471 kts 46°
2026-05-04 18:40 55.05102 9.57401 29115 ft 468 kts 47°
2026-05-04 18:41 55.07234 9.61676 28835 ft 466 kts 47°
2026-05-04 18:41 55.09269 9.66061 28557 ft 465 kts 54°
2026-05-04 18:41 55.10893 9.70928 28278 ft 464 kts 64°
2026-05-04 18:41 55.12040 9.76100 28014 ft 462 kts 72°
2026-05-04 18:42 55.12995 9.81423 27510 ft 457 kts 72°
2026-05-04 18:42 55.13937 9.86675 27082 ft 448 kts 72°
2026-05-04 18:42 55.14861 9.91839 26592 ft 442 kts 72°
2026-05-04 18:42 55.15772 9.96958 25991 ft 440 kts 72°
2026-05-04 18:43 55.16674 10.02055 25430 ft 437 kts 72°
2026-05-04 18:43 55.17568 10.07113 24916 ft 434 kts 72°
2026-05-04 18:43 55.18446 10.12106 24679 ft 423 kts 72°
2026-05-04 18:43 55.19301 10.16980 24411 ft 416 kts 72°
2026-05-04 18:44 55.20148 10.21806 24175 ft 414 kts 72°
2026-05-04 18:44 55.20717 10.25054 24010 ft 412 kts 72°
2026-05-04 18:44 55.21825 10.31392 23698 ft 410 kts 72°
2026-05-04 18:44 55.22658 10.36158 23450 ft 408 kts 72°
2026-05-04 18:45 55.23483 10.40909 23170 ft 407 kts 72°
2026-05-04 18:45 55.24303 10.45647 22890 ft 405 kts 72°
2026-05-04 18:45 55.25117 10.50370 22605 ft 404 kts 72°
2026-05-04 18:45 55.25925 10.55074 22354 ft 403 kts 72°
2026-05-04 18:46 55.26731 10.59766 22082 ft 401 kts 72°
2026-05-04 18:46 55.27534 10.64440 21809 ft 400 kts 72°
2026-05-04 18:46 55.28335 10.69100 21551 ft 398 kts 72°
2026-05-04 18:46 55.29133 10.73741 21289 ft 397 kts 72°
2026-05-04 18:47 55.29927 10.78369 21031 ft 396 kts 72°
2026-05-04 18:47 55.30716 10.82985 20797 ft 395 kts 72°
2026-05-04 18:47 55.31501 10.87601 20542 ft 394 kts 72°
2026-05-04 18:47 55.32280 10.92211 20290 ft 393 kts 72°
2026-05-04 18:48 55.33057 10.96806 20036 ft 392 kts 72°
2026-05-04 18:48 55.33830 11.01394 19788 ft 391 kts 72°
2026-05-04 18:48 55.34596 11.05960 19543 ft 389 kts 72°
2026-05-04 18:48 55.35353 11.10524 19296 ft 388 kts 72°
2026-05-04 18:49 55.36106 11.15073 19049 ft 387 kts 72°
2026-05-04 18:49 55.36856 11.19609 18808 ft 385 kts 72°
2026-05-04 18:49 55.37592 11.24078 18566 ft 377 kts 72°
2026-05-04 18:49 55.38310 11.28477 18329 ft 371 kts 72°
2026-05-04 18:50 55.39014 11.32792 18064 ft 362 kts 72°
2026-05-04 18:50 55.39692 11.36946 17790 ft 345 kts 72°
2026-05-04 18:50 55.40333 11.40879 17525 ft 335 kts 72°
2026-05-04 18:50 55.40976 11.44834 17303 ft 329 kts 72°
2026-05-04 18:51 55.41593 11.48638 17006 ft 327 kts 73°
2026-05-04 18:51 55.42214 11.52476 16688 ft 325 kts 73°
2026-05-04 18:51 55.42831 11.56287 16371 ft 323 kts 73°
2026-05-04 18:51 55.43561 11.60010 16058 ft 320 kts 63°
2026-05-04 18:52 55.44638 11.63404 15750 ft 316 kts 52°
2026-05-04 18:52 55.46025 11.66364 15447 ft 311 kts 40°
2026-05-04 18:52 55.47623 11.68898 15145 ft 308 kts 37°
2026-05-04 18:52 55.49229 11.71390 14844 ft 307 kts 37°
2026-05-04 18:53 55.50827 11.73882 14553 ft 306 kts 37°
2026-05-04 18:53 55.52412 11.76371 14230 ft 303 kts 38°
2026-05-04 18:53 55.53982 11.78844 13694 ft 303 kts 38°
2026-05-04 18:53 55.55558 11.81325 13360 ft 302 kts 38°
2026-05-04 18:54 55.57121 11.83787 13094 ft 298 kts 38°
2026-05-04 18:54 55.58642 11.86187 12849 ft 289 kts 38°
2026-05-04 18:54 55.60130 11.88539 12469 ft 285 kts 37°
2026-05-04 18:54 55.61599 11.90861 11977 ft 282 kts 38°
2026-05-04 18:55 55.63054 11.93160 11486 ft 279 kts 38°
2026-05-04 18:55 55.65930 11.97703 10655 ft 275 kts 38°
2026-05-04 18:55 55.67351 11.99954 10372 ft 273 kts 38°
2026-05-04 18:56 55.68764 12.02190 10076 ft 272 kts 38°
2026-05-04 18:56 55.70168 12.04410 9779 ft 270 kts 38°
2026-05-04 18:56 55.71501 12.06743 9461 ft 271 kts 48°
2026-05-04 18:56 55.72503 12.09577 9102 ft 273 kts 64°
2026-05-04 18:57 55.73081 12.12769 8826 ft 271 kts 79°
2026-05-04 18:57 55.73219 12.16107 8611 ft 272 kts 94°
2026-05-04 18:57 55.73024 12.19431 8262 ft 271 kts 97°
2026-05-04 18:57 55.72814 12.22739 7916 ft 269 kts 97°
2026-05-04 18:58 55.72611 12.26026 7587 ft 267 kts 97°
2026-05-04 18:58 55.72411 12.29289 7256 ft 265 kts 97°
2026-05-04 18:58 55.72214 12.32500 7057 ft 257 kts 97°
2026-05-04 18:58 55.72020 12.35626 6798 ft 253 kts 97°
2026-05-04 18:59 55.71825 12.38712 6500 ft 251 kts 97°
2026-05-04 18:59 55.71632 12.41779 6171 ft 249 kts 97°
2026-05-04 18:59 55.71440 12.44826 5826 ft 248 kts 97°
2026-05-04 18:59 55.71269 12.47859 5511 ft 246 kts 91°
2026-05-04 19:00 55.71387 12.50872 5280 ft 244 kts 78°
2026-05-04 19:00 55.71850 12.53756 5072 ft 242 kts 65°
2026-05-04 19:00 55.72588 12.56423 4873 ft 240 kts 60°
2026-05-04 19:00 55.73347 12.59056 4665 ft 240 kts 60°
2026-05-04 19:01 55.74097 12.61686 4470 ft 238 kts 60°
2026-05-04 19:01 55.74952 12.64125 4345 ft 234 kts 48°
2026-05-04 19:01 55.76064 12.66205 4215 ft 231 kts 37°
2026-05-04 19:01 55.77276 12.68075 4095 ft 230 kts 38°
2026-05-04 19:02 55.78476 12.69935 4023 ft 228 kts 37°
2026-05-04 19:02 55.79687 12.71763 4027 ft 228 kts 37°
2026-05-04 19:02 55.80902 12.73579 4026 ft 229 kts 36°
2026-05-04 19:02 55.82118 12.75392 4025 ft 228 kts 36°
2026-05-04 19:03 55.83337 12.77219 4018 ft 220 kts 36°
2026-05-04 19:03 55.84451 12.78897 3930 ft 208 kts 36°
2026-05-04 19:03 55.85548 12.80556 3697 ft 206 kts 36°
2026-05-04 19:03 55.86635 12.82203 3535 ft 205 kts 37°
2026-05-04 19:04 55.87656 12.83950 3414 ft 206 kts 53°
2026-05-04 19:04 55.88050 12.86379 3255 ft 209 kts 92°
2026-05-04 19:04 55.87552 12.88765 3109 ft 208 kts 130°
2026-05-04 19:04 55.86441 12.90398 3016 ft 208 kts 148°
2026-05-04 19:05 55.85222 12.91772 3017 ft 208 kts 150°
2026-05-04 19:05 55.83971 12.93052 3016 ft 207 kts 161°
2026-05-04 19:05 55.82575 12.93419 3028 ft 203 kts 182°
2026-05-04 19:05 55.81163 12.93373 3027 ft 203 kts 185°
2026-05-04 19:06 55.79778 12.93030 3023 ft 200 kts 203°
2026-05-04 19:06 55.78602 12.91816 3027 ft 194 kts 224°
2026-05-04 19:06 55.77589 12.90228 3022 ft 194 kts 225°
2026-05-04 19:06 55.76578 12.88639 3024 ft 194 kts 225°
2026-05-04 19:07 55.75562 12.87046 3030 ft 195 kts 225°
2026-05-04 19:07 55.74548 12.85460 3022 ft 194 kts 225°
2026-05-04 19:07 55.73529 12.83867 2905 ft 195 kts 225°
2026-05-04 19:07 55.72515 12.82283 2673 ft 194 kts 225°
2026-05-04 19:08 55.71505 12.80706 2421 ft 194 kts 225°
2026-05-04 19:08 55.70496 12.79132 2161 ft 192 kts 225°
2026-05-04 19:08 55.69494 12.77571 1901 ft 191 kts 226°
2026-05-04 19:08 55.68511 12.76042 1642 ft 182 kts 225°
2026-05-04 19:09 55.67604 12.74633 1399 ft 165 kts 225°
2026-05-04 19:09 55.66779 12.73350 1186 ft 150 kts 226°
2026-05-04 19:09 55.66031 12.72189 991 ft 138 kts 225°
2026-05-04 19:09 55.65314 12.71071 792 ft 136 kts 224°
2026-05-04 19:10 55.64609 12.69969 632 ft 135 kts 223°
2026-05-04 19:10 55.63902 12.68871 420 ft 135 kts 224°
2026-05-04 19:10 55.63195 12.67771 239 ft 135 kts 224°
2026-05-04 19:10 55.62490 12.66676 50 ft 135 kts 224°
2026-05-04 19:11 55.61875 12.65725 28 ft 96 kts 221°
2026-05-04 19:11 55.61473 12.65098 23 ft 61 kts 222°
2026-05-04 19:11 55.61288 12.64739 27 ft 34 kts 243°
2026-05-04 19:11 55.61223 12.64437 24 ft 12 kts 251°
2026-05-04 19:12 55.61199 12.64314 25 ft 10 kts 251°
2026-05-04 19:12 55.61255 12.64108 24 ft 12 kts 355°
2026-05-04 19:12 55.61330 12.64168 24 ft 12 kts 33°
2026-05-04 19:13 55.61422 12.64274 24 ft 21 kts 33°
2026-05-04 19:13 55.61540 12.64409 24 ft 18 kts 33°
2026-05-04 19:13 55.61646 12.64530 24 ft 16 kts 32°
2026-05-04 19:13 55.61753 12.64560 25 ft 17 kts 349°
2026-05-04 19:14 55.61843 12.64528 24 ft 11 kts 349°
2026-05-04 19:14 55.61908 12.64507 25 ft 9 kts 352°
2026-05-04 19:14 55.61970 12.64513 24 ft 8 kts 12°
2026-05-04 19:14 55.62018 12.64548 24 ft 7 kts 31°
2026-05-04 19:15 55.62035 12.64568 25 ft 0 kts 34°
2026-05-04 19:15 55.62060 12.64597 23 ft 10 kts 34°
2026-05-04 19:15 55.62128 12.64649 24 ft 10 kts 353°
2026-05-04 19:16 55.62178 12.64566 24 ft 12 kts 305°
2026-05-04 19:16 55.62237 12.64466 22 ft 10 kts 340°
2026-05-04 19:16 55.62259 12.64470 23 ft 0 kts 19°
2026-05-04 19:17 55.62279 12.64519 23 ft 7 kts 63°
2026-05-04 19:17 55.62294 12.64579 25 ft 0 kts 66°
2026-05-04 19:18 55.62297 12.64591 24 ft 5 kts 66°
2026-05-04 19:18 55.62348 12.64670 24 ft 11 kts 18°
2026-05-04 19:18 55.62419 12.64664 24 ft 10 kts 338°
2026-05-04 19:19 55.62469 12.64559 25 ft 12 kts 303°
2026-05-04 19:19 55.62520 12.64420 24 ft 10 kts 303°
2026-05-04 19:19 55.62532 12.64388 24 ft 2 kts 303°
2026-05-04 19:19 55.62538 12.64371 25 ft 1 kts 303°
2026-05-04 19:20 55.62558 12.64317 24 ft 7 kts 303°
2026-05-04 19:20 55.62587 12.64240 24 ft 9 kts 303°
2026-05-04 19:20 55.62624 12.64138 24 ft 11 kts 303°
2026-05-04 19:20 55.62662 12.64049 24 ft 6 kts 326°
2026-05-04 19:21 55.62693 12.64060 24 ft 6 kts 26°
2026-05-04 19:21 55.62711 12.64081 24 ft 2 kts 33°
2026-05-04 19:21 55.62719 12.64090 27 ft 1 kts 33°
2026-05-04 19:21 55.62722 12.64093 26 ft 0 kts 33°